Theta_e
318 314 314 311 301 297 292 297 301 302 303 304 306 304 303 306 305 301 318 332 332 334 340 343 347 348 348 348 348 348 346 344 342 341 340 340 340 340 342 343 343 345 347 347 345 342 341 340 340
314 315 312 305 297 291 293 299 301 304 307 309 305 305 302 300 309 313 319 329 334 334 340 342 344 348 348 348 348 348 347 345 343 342 340 340 340 340 341 342 342 343 345 345 344 343 342 341 340
313 314 306 301 296 296 295 300 302 305 306 305 302 303 300 303 311 314 321 327 334 334 339 341 343 347 348 348 348 348 347 346 345 343 341 341 341 340 340 340 341 344 342 342 342 342 342 342 340
308 308 308 301 298 299 301 303 304 305 308 308 306 300 301 309 314 319 322 331 334 335 338 340 344 347 348 347 348 348 348 347 345 345 344 342 342 343 343 343 343 345 345 344 345 342 343 340 339
307 303 300 298 299 301 306 308 305 307 307 308 303 303 302 308 315 318 323 332 333 335 337 338 342 345 347 347 347 347 347 346 346 346 345 345 345 345 344 344 343 344 345 346 345 344 341 339 338
300 301 297 295 299 303 305 308 307 308 310 310 307 307 307 311 313 317 324 330 333 335 337 337 337 341 343 345 346 346 346 346 346 345 345 346 345 345 346 345 345 345 345 345 344 341 339 338 335
296 297 294 295 298 301 305 308 307 308 308 309 309 305 310 311 314 317 321 325 329 334 336 337 338 338 337 340 341 342 343 344 344 344 344 343 343 344 344 344 344 345 344 342 340 338 336 333 330
297 296 293 294 295 297 307 307 309 308 308 312 313 305 306 311 312 318 317 320 324 329 334 335 338 338 340 340 334 336 338 340 340 340 338 336 337 338 339 337 340 343 342 340 337 335 331 328 324
295 289 287 291 294 298 304 299 303 306 306 303 307 308 310 307 313 315 315 317 322 327 330 333 337 338 339 340 336 331 333 334 335 334 332 331 337 334 333 331 335 339 338 337 334 330 326 323 319
289 285 286 291 294 295 298 296 297 296 295 297 300 298 304 306 308 312 313 315 318 324 327 332 335 337 338 339 340 338 339 337 338 338 334 336 332 329 328 325 328 332 331 333 330 326 322 313 303
288 285 288 289 292 292 293 294 295 291 291 294 294 296 299 304 306 308 312 315 318 322 326 331 333 335 336 337 338 339 338 337 336 336 335 333 328 324 322 322 323 321 320 319 320 316 307 302 297
284 288 290 290 291 290 290 292 291 291 293 294 295 295 295 299 299 304 308 313 314 319 326 329 332 333 335 336 335 337 337 336 335 336 333 326 325 322 320 316 314 314 312 310 307 304 301 299 298
285 286 289 289 290 289 290 288 290 291 293 293 293 294 294 293 294 297 306 311 314 315 322 328 330 332 334 334 334 334 335 336 336 334 332 328 324 321 317 314 310 309 308 307 304 302 299 296 297
286 287 287 288 288 288 287 288 288 292 293 291 292 293 294 295 295 296 296 304 309 313 318 325 329 331 333 333 332 332 333 334 335 332 328 325 324 321 317 312 309 307 307 304 303 300 296 296 297
287 283 286 286 286 286 287 285 286 292 293 292 292 293 294 296 297 295 297 298 304 308 314 321 328 330 331 332 332 332 333 333 332 330 326 323 322 319 316 312 309 308 305 303 301 298 296 296 297
283 281 278 284 286 287 286 281 287 290 289 290 291 292 293 294 296 296 296 295 301 306 309 316 326 330 331 332 332 332 332 331 331 328 325 320 320 317 314 311 309 306 304 302 299 297 296 296 296
277 274 276 280 286 285 284 283 288 290 288 288 290 291 289 291 293 294 294 297 298 303 307 312 321 327 331 332 332 331 330 329 329 327 324 320 318 316 313 312 309 305 303 301 300 296 296 295 295
273 274 276 276 281 282 280 280 285 288 288 289 290 291 292 290 292 296 294 296 297 298 304 309 319 326 330 332 331 330 328 328 328 326 324 321 316 313 313 311 306 305 301 299 298 297 295 295 295
274 273 271 274 280 281 281 280 282 286 286 287 289 290 291 292 294 294 296 294 294 296 299 307 315 322 328 329 326 326 324 325 325 323 322 319 316 312 311 309 304 304 302 300 298 296 295 293 294
272 270 271 275 278 277 277 279 284 286 287 288 288 289 290 292 294 294 292 292 291 292 294 299 308 318 325 327 327 327 326 325 325 322 319 316 314 311 311 308 305 304 302 298 298 296 294 293 294
270 270 271 271 274 277 276 274 278 284 287 289 290 291 291 288 284 286 286 287 288 288 289 291 295 311 321 325 326 326 322 315 314 315 314 313 313 311 310 307 306 304 302 299 299 298 297 293 293
267 274 272 272 270 267 274 266 275 280 283 287 289 290 285 283 284 284 285 285 286 287 288 289 292 295 315 322 322 322 319 315 314 312 312 312 312 310 309 307 306 304 302 300 299 299 298 295 294
269 273 271 272 270 269 269 269 274 280 280 280 283 284 280 281 281 281 282 284 284 285 285 287 289 293 303 319 321 321 318 318 314 313 308 308 308 309 308 307 304 303 302 301 299 298 297 297 296
274 272 271 272 270 265 270 271 271 272 275 276 278 278 278 278 278 279 280 281 282 283 283 284 286 289 291 314 319 319 317 313 306 306 305 304 305 306 305 305 304 303 302 301 300 300 298 297 295
272 267 261 258 258 263 273 270 273 277 278 277 275 275 276 276 275 275 276 276 278 279 280 282 283 285 288 292 316 317 314 312 305 304 304 303 303 301 302 303 303 302 301 301 300 298 298 297 294
269 268 262 258 260 263 270 269 272 279 279 278 277 276 276 275 274 274 274 275 275 277 278 279 280 282 284 287 293 305 308 304 300 301 302 302 303 302 301 302 302 301 300 300 299 298 297 296 295
268 263 270 265 266 263 268 274 279 278 277 276 276 276 275 274 273 273 273 274 274 275 276 277 278 280 282 284 288 295 299 297 297 297 298 299 299 299 299 300 300 300 299 299 298 297 296 295 295
269 271 261 263 257 254 265 267 268 272 273 275 275 275 275 275 274 273 272 273 274 274 274 275 276 277 280 282 285 288 291 294 295 296 296 296 297 297 297 298 298 297 298 298 297 297 295 294 294
266 264 265 265 263 260 259 263 274 273 274 273 275 276 275 275 274 273 273 273 273 273 273 273 274 275 277 280 282 284 286 288 292 293 294 295 296 296 296 297 297 296 296 296 296 296 293 293 291
267 263 264 257 257 262 262 261 276 275 274 274 274 275 276 276 275 275 274 273 272 272 272 272 273 274 276 278 280 282 284 285 286 287 290 293 294 295 295 296 296 295 295 295 295 293 293 292 290
Wind_Speed
2 2 2 5 3 4 4 7 3 6 5 4 2 2 6 6 4 5 3 11 7 14 16 16 20 20 20 19 18 18 18 17 17 16 16 15 15 14 14 13 11 10 15 15 14 12 12 11 11
2 2 5 2 4 3 6 6 10 11 8 9 7 2 2 8 3 3 2 10 8 13 15 16 19 21 20 19 19 19 18 18 18 17 17 16 16 15 14 13 12 11 12 13 12 13 12 11 11
1 2 4 4 4 12 6 7 11 7 4 4 5 4 3 5 3 4 6 12 10 12 14 14 17 20 21 20 19 19 19 19 19 19 19 18 17 16 15 14 13 11 13 14 14 14 13 13 11
2 3 2 3 16 9 9 7 7 5 5 7 3 8 5 6 3 9 10 15 12 13 15 18 22 22 21 20 20 20 20 19 19 19 19 19 17 15 14 14 13 12 13 15 16 15 15 13 11
2 3 3 5 15 5 13 10 2 8 6 6 1 8 5 7 8 3 8 13 16 14 14 15 23 22 22 22 21 20 20 20 20 19 19 18 17 16 16 15 15 14 13 15 14 14 13 12 10
0 2 3 9 20 11 7 9 4 12 14 15 5 8 8 6 2 9 8 14 14 18 16 16 23 24 23 21 21 21 20 20 19 19 18 18 17 17 16 17 16 16 14 13 15 14 12 11 10
5 4 5 5 18 19 15 9 10 14 12 18 3 4 7 7 8 4 6 4 6 9 13 13 17 18 21 22 21 20 21 20 20 20 19 18 16 16 15 14 15 14 15 13 14 11 10 9 8
4 4 4 7 17 26 16 8 5 10 14 4 8 6 7 3 6 6 5 3 4 5 8 11 13 13 13 14 17 16 17 17 16 15 14 12 12 12 13 12 11 13 12 13 12 12 10 8 6
3 1 7 11 14 17 4 4 3 1 6 5 6 6 7 5 3 3 3 2 3 5 7 9 14 16 15 12 10 12 13 13 12 11 11 10 7 9 12 10 10 11 11 12 12 11 9 7 5
5 5 11 6 12 12 11 5 7 4 4 10 15 7 9 4 3 6 7 10 9 9 10 11 14 17 16 13 13 12 11 10 10 10 9 8 7 6 7 8 10 10 12 13 13 11 8 7 3
5 10 5 7 8 4 10 18 6 6 14 14 12 10 7 6 7 7 8 9 15 12 5 10 12 16 18 13 10 8 8 8 8 12 10 8 6 5 4 4 3 4 7 4 6 6 4 5 3
5 6 10 6 6 5 8 13 15 13 17 10 12 9 4 11 13 9 10 11 8 8 14 13 12 13 17 12 11 10 11 10 9 10 12 8 6 6 6 6 5 4 3 5 5 3 4 5 5
6 6 8 7 11 7 7 14 24 32 15 12 13 17 19 14 17 12 13 12 11 9 12 14 14 14 15 16 12 12 12 11 13 10 12 10 9 9 7 6 6 4 4 5 5 5 4 4 5
7 8 12 8 10 9 13 22 10 26 10 10 13 17 21 21 20 19 9 18 16 15 15 14 16 17 16 16 15 13 11 12 11 10 12 14 11 10 9 8 7 6 5 5 5 5 5 4 4
7 16 17 12 8 10 6 26 26 24 22 24 17 19 22 25 20 17 19 15 17 14 15 15 17 18 17 20 15 12 12 11 11 10 12 14 13 13 12 9 8 7 6 6 5 4 4 4 3
8 6 7 4 5 7 7 32 8 11 10 19 18 16 16 20 20 14 12 11 14 17 16 16 14 17 18 17 15 13 12 11 11 11 10 14 14 14 12 9 9 8 7 5 5 4 4 4 4
4 7 13 12 5 7 6 31 12 8 9 15 19 14 10 12 12 11 11 14 15 14 16 14 15 17 20 18 14 15 15 12 11 11 10 15 14 14 12 10 8 11 8 6 7 3 4 4 4
17 15 14 19 12 27 27 36 28 19 14 20 18 22 18 12 17 18 11 11 11 11 14 13 13 18 18 15 12 10 10 11 11 11 11 15 12 14 12 8 9 11 8 7 6 6 2 3 4
8 13 19 24 16 24 20 29 40 24 23 26 24 21 24 21 12 11 14 9 10 11 11 14 15 17 13 13 13 12 12 12 11 11 16 15 14 15 14 9 10 10 11 11 10 4 7 2 4
13 19 18 19 20 22 21 32 34 28 21 19 20 21 18 21 20 13 16 16 16 13 11 10 14 15 15 14 14 13 13 12 12 10 12 14 15 16 15 13 12 12 10 10 11 9 4 3 7
15 13 13 22 26 15 24 31 29 27 23 23 22 20 19 10 10 13 15 15 16 17 17 15 17 15 17 20 12 11 7 3 6 8 9 11 15 15 15 15 13 14 12 11 13 12 13 6 5
18 11 20 24 18 13 11 20 28 22 25 18 19 17 7 12 13 13 15 16 17 17 17 16 16 17 16 19 16 20 15 13 12 11 11 12 16 16 15 15 14 14 10 12 12 11 10 8 10
13 20 21 25 24 19 4 13 11 13 17 24 22 16 17 16 18 18 17 16 15 16 17 18 18 16 15 17 18 16 17 13 10 9 12 12 12 14 16 15 15 14 11 12 14 13 13 9 8
16 15 22 19 5 5 15 11 6 11 13 19 20 20 20 20 19 17 17 17 16 16 17 18 20 18 18 11 17 18 18 14 9 11 11 11 10 10 13 14 14 13 13 14 13 14 15 12 7
20 15 6 8 6 6 9 12 8 12 15 18 18 20 18 18 18 18 21 20 20 21 21 19 21 20 21 18 9 12 14 15 14 14 12 13 10 8 12 15 14 12 13 12 12 12 13 13 10
10 8 3 8 8 17 18 4 6 10 10 13 14 14 18 19 18 20 20 18 19 20 20 20 21 20 20 19 17 5 4 4 4 8 7 9 10 10 11 13 13 13 13 12 12 10 10 10 10
6 8 10 6 9 6 4 6 5 17 16 16 17 18 18 20 20 20 20 18 18 18 19 19 21 20 19 19 16 11 4 5 6 7 5 5 5 6 9 12 11 11 12 13 13 10 11 10 10
5 6 4 4 6 8 7 8 7 20 23 19 19 17 16 16 20 19 18 19 18 17 17 18 18 18 18 18 16 13 13 7 1 6 7 7 6 7 9 11 10 10 11 12 13 10 9 11 8
3 4 4 3 3 5 8 5 9 13 14 17 16 15 16 16 16 18 17 17 17 17 18 18 19 20 20 18 16 16 15 14 9 6 3 5 6 7 9 11 10 10 11 12 12 11 10 13 10
5 4 4 3 7 6 10 11 6 11 13 11 14 14 13 13 13 12 16 16 17 18 19 18 18 18 19 17 15 16 15 15 13 11 10 5 3 4 7 8 9 9 10 11 12 12 11 13 12
Wind_Direction
358 356 80 45 52 69 249 255 265 272 301 235 328 257 235 271 175 220 322 186 158 156 171 178 179 175 174 172 169 164 163 163 162 161 160 159 158 158 157 157 159 158 156 152 150 147 142 133 132
2 112 50 82 127 217 256 238 249 245 229 327 307 265 265 251 240 270 131 197 165 159 171 179 182 178 177 175 171 168 166 167 167 167 167 166 165 163 163 164 167 167 154 148 150 148 150 145 140
143 47 106 149 209 228 230 217 235 267 262 241 289 196 230 242 266 224 223 162 151 165 173 182 183 183 180 178 176 172 172 172 173 173 173 173 171 169 170 171 175 180 170 163 160 157 155 151 147
105 26 30 167 234 226 219 216 208 276 289 218 235 279 290 233 206 205 159 154 157 172 177 182 182 186 186 183 179 177 177 178 177 177 177 177 177 175 176 178 181 192 186 180 173 168 158 151 150
40 63 192 240 250 256 237 240 210 281 275 256 166 257 255 284 248 211 178 163 168 175 179 181 186 188 187 186 185 182 182 182 182 181 180 181 182 183 182 185 188 197 211 193 185 162 162 153 154
64 99 188 228 257 245 244 221 234 255 269 279 221 243 242 248 228 216 185 192 179 172 179 184 187 186 188 190 189 187 186 186 186 186 186 185 185 189 190 190 192 197 206 203 165 167 165 159 158
158 132 224 250 268 269 252 186 209 238 252 259 227 232 254 286 272 311 183 199 201 180 175 185 189 191 188 186 189 190 189 189 189 190 190 190 195 191 192 195 187 174 167 159 157 166 161 162 165
141 138 215 227 250 277 269 199 203 211 253 275 182 235 254 279 350 100 78 114 177 185 184 181 185 194 196 196 183 186 190 191 192 192 192 191 190 190 186 168 176 159 161 162 164 164 167 173 168
106 191 221 227 227 249 278 321 321 262 260 278 226 226 267 313 63 108 133 163 188 204 198 181 188 190 197 199 195 181 187 187 189 193 185 178 184 173 164 154 168 164 167 165 168 168 172 161 146
164 205 219 226 240 264 286 275 276 246 275 292 282 264 274 289 221 200 210 214 211 208 201 195 192 194 190 196 194 196 195 200 199 194 188 180 173 178 145 150 169 168 166 164 170 171 152 114 112
210 235 235 259 259 288 291 284 230 234 257 236 266 274 260 270 239 235 239 230 215 209 197 204 199 194 194 196 189 191 197 196 204 192 179 178 166 171 141 141 169 154 148 144 155 155 123 139 154
256 246 252 285 278 279 255 300 272 229 249 254 247 244 237 260 264 239 236 235 241 193 201 203 199 199 200 195 199 195 196 194 195 189 182 170 173 170 166 158 160 155 151 144 137 134 146 164 183
237 260 270 287 294 270 288 270 272 269 260 263 262 274 269 256 260 251 232 239 232 227 217 202 192 200 201 198 197 199 205 198 199 190 182 178 180 174 164 165 153 155 149 152 151 156 166 187 192
310 293 285 289 282 282 284 273 262 273 290 255 258 259 264 262 253 263 239 237 230 229 228 209 198 201 195 202 199 198 201 204 201 191 189 184 180 175 174 168 165 162 169 160 156 166 173 191 186
275 300 298 267 235 245 244 271 252 270 275 270 263 253 257 262 265 248 258 243 237 234 230 220 205 202 198 201 198 197 199 195 197 200 190 187 185 177 171 172 169 173 168 153 147 155 158 174 184
301 278 307 33 35 277 154 270 288 302 286 279 269 266 263 263 266 267 253 239 231 237 230 226 212 205 202 203 201 199 198 196 194 193 190 192 187 178 169 173 174 161 158 162 162 162 166 183 180
336 299 304 319 261 287 207 275 258 292 300 282 292 286 281 281 282 271 240 248 246 232 234 225 215 207 205 207 203 202 199 199 199 192 190 188 190 177 172 175 172 159 164 169 173 166 155 171 179
308 307 294 293 321 321 305 289 287 285 294 287 285 292 290 279 274 281 260 242 248 237 235 225 211 208 203 205 205 203 195 197 198 197 194 186 184 182 174 174 167 163 164 165 171 165 156 160 166
314 306 296 300 309 300 275 273 281 283 278 281 281 286 291 287 272 261 273 257 248 245 230 218 209 208 195 202 203 203 197 193 195 193 193 186 182 180 182 175 167 170 172 178 176 138 175 155 151
345 320 313 298 343 319 306 283 284 283 283 289 285 282 282 293 294 322 356 3 359 333 320 273 227 211 202 204 204 207 204 206 202 193 187 183 182 183 183 174 175 178 167 167 172 167 141 144 178
339 308 309 301 310 272 268 268 279 280 261 259 259 265 278 325 0 358 2 358 354 353 343 330 314 234 210 206 203 203 191 141 172 190 184 187 184 186 186 181 177 179 177 180 178 182 176 170 197
325 313 315 305 310 301 51 293 295 289 286 281 281 277 3 9 6 7 4 2 356 348 338 335 326 310 232 207 200 199 200 196 199 192 190 189 188 187 187 185 183 180 179 177 185 183 187 157 183
295 307 292 285 275 295 294 259 296 298 305 355 351 12 21 9 5 360 358 355 353 351 345 339 337 328 290 211 210 204 202 203 186 189 185 188 189 190 188 186 180 178 181 182 179 180 192 189 178
311 305 281 270 243 228 269 239 54 26 353 7 15 13 6 0 355 355 353 351 352 354 353 347 348 345 344 269 212 206 202 191 172 173 177 184 187 190 188 182 183 185 185 185 183 183 189 191 181
347 357 344 5 360 288 328 339 49 26 21 16 6 1 0 357 354 353 356 354 352 355 354 352 351 351 348 345 263 208 205 198 187 179 181 179 181 185 187 180 182 185 185 181 179 183 187 191 189
346 10 329 319 326 294 303 246 54 39 31 25 14 0 354 357 358 356 355 352 350 352 355 353 352 352 353 352 346 325 174 165 164 174 181 188 189 185 178 187 189 186 182 179 178 184 188 188 196
327 7 298 272 278 257 288 342 328 14 19 19 8 359 357 353 356 356 351 352 353 354 357 354 354 354 356 357 353 353 0 140 154 162 158 170 156 160 167 184 186 185 178 178 178 183 187 184 188
120 293 0 355 320 301 309 312 1 7 0 2 4 354 348 354 353 355 354 352 352 354 356 359 1 359 356 360 4 4 6 1 107 146 161 167 158 153 160 176 181 177 181 180 179 184 179 181 189
340 3 346 263 259 294 318 276 37 19 0 355 349 346 346 354 354 351 355 355 351 355 2 3 5 2 1 2 4 11 10 11 20 9 331 174 159 158 169 178 178 176 179 183 185 188 176 185 177
192 183 166 115 293 278 268 271 119 38 23 355 341 346 349 351 345 346 355 354 357 2 5 6 6 6 4 358 4 15 14 15 20 14 358 346 268 171 175 176 178 181 187 187 189 187 184 187 183